Temperature
4 4 3 4 4 5 5 6 6 7 8 8 8 8 9 9 10 10 10 11 12 13 14 14 14 14 14 14 15 15 15 15 15 15 15 15 15 15 15 15 15 15 14 14
3 4 4 5 5 5 6 6 7 7 8 8 8 8 9 9 9 10 10 11 12 13 13 14 14 14 14 14 14 14 15 15 15 15 15 15 15 15 15 15 15 15 14 14
4 4 5 5 5 6 6 6 7 7 8 8 8 8 9 9 9 10 11 11 12 13 13 14 14 14 14 14 14 14 14 14 14 14 14 15 14 14 14 14 14 14 14 14
4 5 5 6 6 6 6 7 8 8 7 7 8 8 9 9 9 10 10 11 12 13 14 15 15 15 15 15 15 14 14 14 14 14 14 14 14 14 15 15 15 15 14 14
5 5 5 6 6 6 6 7 7 8 7 7 7 7 8 9 9 10 10 11 13 14 14 15 15 15 15 15 15 15 15 15 14 14 14 14 14 14 14 14 14 14 14 14
5 6 6 6 7 7 7 7 7 7 7 7 8 8 8 8 9 10 10 11 13 14 14 15 15 15 15 15 15 15 15 15 15 14 14 14 14 14 14 14 14 14 14 14
5 6 6 6 7 7 7 7 7 7 7 7 8 8 8 9 9 10 10 12 13 14 14 15 15 15 15 15 15 15 15 15 15 15 14 14 14 14 14 14 14 14 14 13
4 5 6 6 7 7 7 7 7 7 7 7 8 8 8 9 9 10 10 11 13 14 14 15 15 15 15 15 15 15 15 15 15 15 14 14 14 14 14 14 14 14 13 13
5 5 6 7 7 7 7 6 7 6 7 7 8 8 8 9 9 8 9 10 11 13 13 14 14 14 15 15 15 15 15 15 15 15 14 14 14 14 13 13 13 13 13 13
6 6 6 7 7 7 7 7 6 7 7 7 8 8 8 9 8 8 8 9 10 12 13 13 14 14 14 14 14 14 14 14 14 14 14 13 13 13 13 13 13 13 12 12
6 6 6 6 6 7 7 7 6 6 6 7 8 8 8 7 8 8 8 9 10 11 12 12 13 13 13 13 13 13 13 13 13 13 13 13 13 13 12 12 12 12 12 11
6 5 5 6 6 7 7 7 7 7 6 5 6 8 8 6 6 7 8 9 10 10 11 12 12 12 12 12 13 13 13 12 12 12 12 12 12 12 11 11 11 11 11 11
6 5 5 6 6 6 7 7 6 6 5 5 6 8 8 6 6 7 8 9 10 10 11 11 11 11 12 12 12 12 12 11 11 11 11 11 11 11 10 10 10 10 10 10
6 5 5 6 6 6 6 7 7 6 5 6 6 7 7 7 7 7 8 9 9 10 10 10 11 11 11 11 11 11 11 11 10 10 10 10 10 9 9 9 9 9 9 9
6 5 5 5 6 6 6 7 6 6 6 6 7 7 7 7 7 7 8 8 9 9 9 9 10 10 10 10 10 10 10 10 10 9 9 9 9 8 8 8 8 8 8 8
5 5 5 5 6 6 6 6 6 6 6 6 6 6 6 7 7 7 7 7 7 8 8 8 9 9 9 9 9 9 9 9 9 9 9 8 8 8 8 8 7 8 8 8
4 5 5 5 5 6 6 6 6 6 5 6 6 6 6 6 6 6 6 6 6 7 7 7 8 8 8 8 8 8 9 8 8 8 8 8 7 7 7 7 7 7 7 7
4 4 3 4 5 5 6 5 5 5 5 5 5 5 5 5 5 5 5 6 6 6 6 7 7 7 7 7 8 8 8 8 8 8 7 7 7 7 6 6 6 6 6 6
4 4 4 4 4 4 5 5 5 5 5 4 4 4 4 5 5 5 5 5 5 5 6 6 6 6 7 7 7 7 7 7 7 7 7 7 7 6 6 6 6 6 6 5
3 3 3 4 5 5 5 5 5 5 5 4 4 3 3 4 3 4 4 5 5 5 5 5 5 6 6 6 6 6 7 7 7 7 6 6 6 6 6 5 5 5 5 5
4 4 4 4 4 4 4 5 5 5 5 4 4 3 3 3 3 4 4 4 4 4 4 5 5 5 5 5 5 6 6 6 6 6 6 5 5 5 5 5 5 4 4 4
3 3 3 3 4 4 4 4 4 4 3 3 3 3 3 3 3 3 3 4 4 4 4 4 4 4 4 4 4 5 5 5 5 5 5 5 5 4 4 4 4 4 3 3
2 2 2 3 4 3 3 4 4 4 4 3 3 3 3 3 3 3 3 3 3 3 3 3 3 3 3 3 3 3 4 4 4 4 4 4 4 4 4 4 3 3 3 3
1 1 1 2 2 2 3 3 4 4 3 3 3 3 2 2 2 2 2 2 2 2 2 2 2 2 3 3 3 3 3 3 3 3 3 3 3 3 3 3 3 2 2 2
1 0 1 1 2 2 2 3 3 3 3 2 2 2 2 1 1 1 1 1 1 1 1 1 1 1 1 2 2 2 2 2 2 2 2 2 2 2 2 2 2 2 2 2
-0 0 1 2 2 1 2 3 3 2 2 2 2 1 1 1 0 0 0 0 0 0 0 0 0 0 0 1 1 1 1 1 1 1 1 1 1 1 1 1 1 1 1 1
Wind_Speed
0 1 4 6 6 6 3 3 3 3 3 3 3 4 5 4 4 4 3 3 4 4 3 4 5 6 7 9 11 13 13 12 10 7 7 6 7 6 5 6 10 12 12 13
1 4 6 5 5 7 4 3 2 1 2 2 1 3 4 4 4 5 5 5 5 5 3 3 4 5 8 10 11 12 12 11 11 9 8 5 5 4 5 4 6 9 10 11
3 4 3 3 3 3 2 3 3 3 2 2 2 3 3 4 4 6 6 6 5 6 7 5 4 4 6 8 10 11 11 10 10 10 6 4 3 2 3 5 5 6 8 9
3 4 2 3 2 2 1 2 3 4 4 1 2 1 4 5 5 8 7 6 7 6 5 5 4 5 5 6 7 8 9 10 9 9 8 8 7 7 7 5 4 4 5 6
3 2 1 2 2 2 2 1 2 3 3 2 1 1 5 2 5 9 9 9 8 6 6 6 5 5 4 3 4 5 6 6 7 8 9 9 8 6 4 4 5 4 4 4
3 2 2 2 2 2 1 3 4 3 2 0 3 3 4 3 6 7 8 8 7 6 5 4 3 2 2 2 3 3 5 5 6 8 8 9 9 8 7 7 6 5 3 3
3 2 1 1 1 1 2 3 3 2 1 2 1 2 5 5 6 7 8 8 6 5 4 3 3 2 3 3 3 4 5 5 5 6 6 7 8 8 8 8 8 7 5 3
2 3 2 1 0 2 1 2 3 3 2 1 1 2 6 5 5 3 3 2 2 3 2 2 2 2 2 2 2 3 3 3 4 5 5 4 5 5 5 6 6 6 5 5
3 1 2 1 1 2 2 1 1 4 2 2 1 4 6 5 7 6 4 2 1 1 1 1 1 1 1 2 2 2 2 2 3 3 3 3 4 5 5 5 5 5 5 6
3 2 2 3 2 3 1 2 2 3 3 1 2 3 4 7 7 7 6 5 4 3 3 3 3 3 2 2 2 2 2 2 2 2 3 3 3 4 5 6 6 6 6 7
2 2 2 2 1 0 1 2 2 3 2 3 1 2 3 5 5 3 3 5 5 6 4 4 4 4 4 3 3 2 2 2 2 2 3 4 4 5 6 6 6 7 6 7
3 3 1 2 3 2 1 1 2 2 1 2 3 3 6 4 3 1 4 5 6 6 5 5 5 5 5 4 3 2 1 1 2 2 3 4 4 5 6 6 7 7 8 7
4 4 3 3 3 2 1 0 2 3 3 3 3 2 5 6 6 5 5 5 6 7 7 7 7 6 5 4 3 2 1 0 1 3 4 4 5 5 6 7 7 7 8 7
4 3 3 4 2 2 1 0 2 3 3 2 3 2 5 6 6 5 5 5 5 6 7 7 6 6 5 4 3 2 1 0 2 3 4 5 5 6 6 6 6 7 7 7
3 2 1 0 1 1 0 1 1 2 4 4 3 3 3 2 1 2 4 5 6 7 7 7 6 6 6 6 5 4 3 1 2 3 4 5 5 6 6 6 6 6 6 6
3 3 2 3 3 1 1 2 1 2 2 3 2 3 3 1 2 3 4 4 5 5 7 7 7 7 7 6 6 5 4 3 2 4 5 4 5 6 6 7 7 6 6 6
2 3 2 1 4 3 3 3 4 2 2 4 5 4 1 0 1 1 2 3 4 5 6 6 7 7 6 6 6 6 5 3 3 4 4 5 6 7 6 7 7 7 6 6
5 4 3 1 3 2 4 2 3 3 0 1 1 1 1 1 1 2 3 3 4 5 6 7 7 7 7 6 6 5 4 3 3 4 4 5 6 7 6 7 7 6 5 5
3 5 3 2 0 5 4 1 2 3 1 1 1 1 2 2 3 3 4 5 4 4 5 5 5 6 7 7 6 5 3 2 3 4 4 5 6 7 7 8 7 6 5 5
4 4 4 3 1 4 4 1 1 2 2 1 2 2 2 3 1 2 4 5 5 5 5 5 5 5 6 7 6 4 4 3 4 5 4 5 6 7 8 8 7 5 5 6
3 3 3 3 3 6 4 2 2 3 4 1 2 2 2 1 2 3 5 5 5 5 5 6 6 6 6 7 6 5 4 4 5 3 3 4 5 6 7 6 6 6 6 6
6 5 4 4 4 7 1 3 4 4 2 3 2 1 1 1 3 4 5 6 7 7 6 6 6 6 6 6 5 5 5 5 3 2 3 4 4 5 5 6 6 6 7 7
6 6 5 7 6 2 1 2 1 3 3 2 2 0 0 2 3 5 6 6 6 6 6 5 6 7 6 5 5 5 6 5 3 2 3 3 3 4 5 6 7 6 6 6
3 3 3 3 5 3 2 2 1 2 3 2 2 0 1 3 4 6 6 7 7 6 6 6 6 6 7 6 5 5 6 4 3 3 3 3 3 4 5 5 6 7 7 7
6 6 4 4 3 1 3 4 4 3 3 2 1 0 1 3 5 5 6 7 6 6 6 5 6 7 7 7 6 6 5 4 4 4 3 3 4 4 5 6 7 8 8 8
5 7 8 6 6 6 5 5 5 4 3 2 1 1 2 2 4 5 5 6 6 7 6 6 6 6 7 7 7 6 5 4 4 4 4 3 3 4 4 5 5 10 10 13
Wind_Direction
188 190 228 226 227 258 239 182 190 223 224 177 195 252 284 317 314 306 298 283 260 250 226 205 203 200 198 198 199 199 196 187 175 177 184 188 200 193 195 198 199 196 194 192
358 257 249 247 238 248 223 190 198 168 184 146 176 262 271 269 272 268 262 259 250 247 238 225 210 193 192 197 201 200 199 190 182 189 191 186 179 189 195 195 199 195 191 188
232 268 265 236 223 220 233 184 179 142 99 85 106 300 259 250 250 260 251 244 237 232 234 233 222 209 200 198 197 198 197 194 196 193 177 157 149 145 181 197 197 193 187 187
265 276 257 231 227 194 277 204 166 136 120 102 137 297 271 231 242 248 249 247 241 237 233 237 223 218 215 209 196 194 193 192 194 189 185 180 191 203 205 196 188 171 176 177
285 291 258 230 243 202 246 212 134 123 117 102 131 147 289 229 238 245 241 238 239 237 231 238 235 223 219 213 201 192 183 185 187 186 188 191 202 206 187 166 166 167 164 163
265 269 254 257 278 203 210 87 75 64 79 127 192 167 282 234 233 246 236 235 234 236 236 238 237 208 210 192 184 176 174 183 181 184 187 194 200 193 180 181 181 175 158 144
347 336 307 269 59 68 91 93 78 57 67 259 170 172 260 264 254 241 238 235 237 227 221 231 226 209 207 192 181 177 178 182 176 177 188 193 196 191 193 191 184 173 167 162
46 338 313 315 184 138 116 105 135 141 165 339 86 245 274 301 312 289 245 221 215 226 205 210 202 186 195 175 157 166 170 173 168 174 181 181 181 184 188 183 173 173 169 156
158 305 323 301 301 128 123 108 162 113 88 81 284 300 317 351 9 15 35 77 132 170 135 123 101 113 116 126 136 157 156 146 147 156 153 158 163 165 164 154 149 146 140 137
148 106 348 320 28 16 120 142 83 95 115 85 353 336 321 334 348 7 33 49 55 65 63 57 56 59 55 69 78 86 112 132 130 131 140 142 144 143 143 142 144 141 138 135
133 113 12 28 40 294 47 74 83 82 106 132 120 305 315 291 307 346 34 45 51 59 54 41 39 44 52 52 58 68 80 100 118 130 130 131 130 131 133 136 138 135 131 134
145 114 77 295 278 259 267 172 138 122 96 111 130 291 329 318 309 52 59 47 46 54 52 47 45 43 42 41 41 46 64 108 143 141 135 136 132 128 128 130 132 131 130 130
137 114 79 8 351 351 345 29 123 112 104 115 127 288 337 27 45 51 59 44 38 41 40 35 33 29 21 16 14 18 29 132 145 141 141 140 141 140 139 138 134 132 131 127
120 100 144 178 227 212 250 233 144 122 130 157 198 246 338 16 37 35 40 41 40 37 34 28 19 11 4 357 350 347 336 192 161 155 159 165 166 158 149 142 139 138 136 134
102 105 114 310 312 155 210 237 169 164 174 174 204 212 271 312 9 25 28 35 40 32 25 20 8 355 351 348 342 330 313 279 185 175 181 186 169 152 145 144 143 140 138 138
79 111 77 21 11 50 347 291 220 203 180 183 187 258 280 311 44 37 29 36 33 18 8 0 355 349 341 331 321 312 294 269 214 199 199 181 162 157 158 156 150 144 139 138
90 113 100 337 327 25 309 267 205 196 208 177 204 233 287 5 2 3 13 30 23 360 349 347 341 331 322 315 306 295 282 264 223 212 199 182 172 170 170 161 156 157 156 152
123 109 108 81 42 256 258 319 168 161 161 253 216 307 306 238 146 61 47 26 2 348 341 336 332 327 323 316 312 299 284 254 228 217 204 190 180 178 170 166 171 168 160 163
124 125 111 108 26 288 297 279 156 153 265 273 196 6 11 36 69 25 21 8 344 331 325 319 317 313 316 319 316 310 293 264 236 229 218 202 189 182 177 181 182 174 168 172
65 93 112 125 175 253 264 288 215 117 283 307 126 88 53 78 81 292 341 343 334 331 328 325 324 324 326 326 324 316 298 272 255 247 232 208 194 190 192 192 184 176 176 182
110 93 132 159 227 266 262 276 109 158 251 139 121 104 96 154 221 285 325 334 333 328 326 329 332 332 327 327 331 323 310 285 276 262 228 206 200 200 197 187 179 174 175 174
168 161 175 166 208 253 282 134 169 205 138 126 123 106 81 291 308 322 331 331 333 332 330 332 331 328 328 336 342 331 317 304 294 260 230 217 207 199 189 182 180 177 176 182
194 187 184 193 211 226 216 185 158 147 143 152 150 179 295 306 314 322 323 323 322 322 322 324 319 319 327 338 341 326 315 313 308 285 254 236 213 202 190 186 184 183 188 195
242 168 161 230 251 224 205 177 141 136 148 150 148 185 296 298 306 312 313 317 318 317 316 320 320 319 322 329 330 319 314 311 302 282 265 240 220 214 202 197 193 194 199 204
205 168 178 232 247 220 229 205 177 147 136 132 132 201 281 299 303 307 311 314 316 316 317 318 316 311 311 318 320 321 320 317 304 289 272 251 233 225 219 215 212 210 213 210
193 178 178 213 209 190 214 192 172 166 176 181 206 293 309 301 300 307 306 308 311 310 311 313 313 312 311 313 315 318 319 312 298 290 280 265 251 241 232 230 235 228 226 229
Height
1465 1467 1466 1463 1463 1462 1459 1458 1457 1457 1454 1455 1456 1456 1455 1455 1456 1456 1457 1458 1460 1462 1465 1469 1472 1475 1478 1482 1486 1490 1495 1498 1502 1507 1510 1513 1516 1519 1523 1525 1528 1530 1532 1534
1467 1465 1461 1460 1460 1459 1457 1457 1456 1455 1453 1454 1456 1456 1455 1454 1455 1456 1456 1457 1459 1461 1464 1466 1469 1472 1475 1479 1482 1487 1492 1495 1499 1503 1506 1510 1513 1516 1519 1521 1524 1526 1528 1531
1465 1462 1458 1459 1458 1457 1455 1455 1454 1454 1455 1455 1457 1457 1455 1453 1454 1454 1454 1455 1457 1459 1461 1464 1466 1470 1474 1477 1480 1483 1487 1491 1494 1499 1503 1506 1509 1512 1514 1517 1519 1522 1524 1527
1462 1459 1458 1457 1456 1456 1455 1453 1452 1452 1456 1460 1459 1461 1454 1452 1452 1451 1450 1452 1453 1456 1458 1461 1464 1467 1471 1474 1478 1481 1484 1487 1491 1495 1498 1501 1504 1507 1510 1513 1516 1518 1520 1522
1461 1458 1457 1456 1455 1455 1455 1452 1452 1453 1457 1461 1460 1463 1457 1452 1451 1448 1447 1448 1450 1453 1456 1459 1462 1465 1469 1472 1475 1479 1482 1484 1488 1491 1494 1497 1500 1504 1506 1509 1511 1514 1516 1518
1459 1458 1457 1456 1454 1454 1453 1453 1454 1456 1459 1463 1460 1462 1459 1453 1448 1444 1443 1444 1447 1450 1453 1457 1460 1463 1467 1470 1473 1476 1480 1482 1485 1488 1491 1494 1497 1500 1502 1504 1506 1509 1512 1514
1460 1457 1456 1455 1454 1454 1454 1458 1462 1463 1465 1463 1459 1459 1457 1447 1445 1443 1442 1442 1444 1448 1451 1454 1457 1461 1465 1468 1471 1475 1478 1480 1483 1485 1488 1490 1493 1496 1498 1500 1503 1505 1507 1510
1464 1463 1457 1455 1455 1455 1456 1458 1463 1464 1463 1464 1460 1459 1453 1445 1443 1440 1440 1441 1444 1446 1450 1453 1456 1460 1463 1466 1469 1472 1475 1477 1480 1482 1485 1487 1490 1492 1494 1496 1499 1501 1503 1505
1462 1462 1456 1455 1454 1455 1457 1459 1459 1463 1464 1464 1462 1459 1451 1445 1443 1442 1441 1442 1444 1446 1449 1452 1455 1459 1462 1465 1467 1470 1472 1475 1477 1479 1481 1484 1486 1488 1490 1492 1495 1497 1499 1501
1458 1460 1458 1456 1455 1455 1456 1457 1461 1462 1463 1464 1462 1461 1460 1451 1449 1446 1445 1445 1445 1447 1450 1453 1455 1458 1461 1464 1466 1468 1471 1473 1474 1476 1478 1480 1482 1484 1486 1488 1490 1493 1495 1497
1456 1460 1461 1459 1459 1458 1458 1458 1461 1465 1465 1467 1465 1465 1457 1456 1453 1451 1449 1449 1449 1450 1451 1454 1456 1458 1461 1463 1465 1467 1469 1470 1472 1474 1475 1477 1479 1480 1482 1484 1486 1488 1491 1493
1457 1462 1464 1462 1459 1458 1458 1458 1460 1463 1467 1472 1471 1469 1456 1456 1453 1452 1452 1452 1452 1452 1454 1455 1457 1459 1460 1462 1463 1465 1466 1468 1469 1471 1472 1473 1475 1477 1478 1480 1482 1484 1486 1489
1456 1461 1466 1465 1465 1462 1459 1458 1460 1463 1469 1473 1472 1468 1457 1456 1454 1454 1454 1454 1454 1455 1455 1457 1458 1459 1460 1461 1463 1464 1465 1466 1467 1468 1469 1470 1472 1473 1475 1477 1478 1480 1483 1484
1454 1461 1466 1467 1463 1462 1461 1459 1460 1463 1469 1470 1469 1466 1460 1458 1457 1457 1456 1457 1457 1457 1458 1459 1459 1460 1461 1461 1462 1462 1463 1464 1464 1465 1466 1467 1468 1470 1471 1473 1475 1477 1479 1481
1455 1462 1463 1463 1461 1461 1461 1461 1461 1463 1465 1467 1465 1465 1462 1461 1460 1460 1459 1459 1459 1460 1460 1460 1460 1460 1460 1460 1461 1461 1461 1461 1462 1462 1463 1464 1465 1466 1468 1470 1472 1474 1475 1477
1457 1461 1463 1464 1463 1461 1462 1462 1462 1462 1463 1464 1464 1465 1462 1461 1461 1461 1461 1461 1461 1461 1461 1461 1461 1460 1460 1460 1459 1459 1459 1458 1458 1459 1459 1460 1461 1462 1464 1466 1468 1470 1471 1473
1460 1462 1466 1468 1465 1461 1465 1462 1462 1462 1463 1463 1464 1464 1462 1462 1462 1463 1463 1463 1463 1463 1462 1461 1460 1460 1459 1458 1457 1456 1456 1455 1455 1455 1456 1456 1457 1459 1461 1463 1464 1466 1467 1469
1461 1465 1469 1471 1468 1471 1465 1460 1460 1462 1463 1463 1463 1463 1463 1463 1463 1463 1463 1463 1463 1463 1462 1461 1459 1458 1457 1456 1454 1453 1452 1452 1452 1452 1452 1453 1454 1455 1457 1459 1460 1462 1463 1464
1459 1464 1470 1473 1473 1470 1463 1461 1461 1462 1462 1463 1463 1463 1463 1463 1463 1464 1464 1463 1463 1462 1461 1460 1458 1457 1455 1453 1451 1450 1449 1448 1448 1448 1448 1449 1450 1451 1453 1454 1456 1457 1459 1460
1462 1463 1470 1472 1469 1468 1463 1460 1459 1462 1463 1463 1463 1463 1463 1463 1466 1466 1464 1463 1462 1461 1460 1458 1456 1455 1453 1451 1449 1447 1446 1445 1445 1445 1445 1446 1446 1447 1448 1450 1452 1453 1454 1455
1464 1467 1469 1471 1471 1468 1462 1459 1460 1467 1465 1463 1462 1463 1463 1464 1466 1465 1463 1462 1461 1459 1458 1456 1454 1452 1450 1448 1446 1444 1443 1442 1441 1441 1441 1442 1442 1443 1444 1445 1447 1448 1449 1450
1464 1467 1469 1470 1471 1469 1460 1459 1462 1463 1461 1461 1462 1463 1463 1463 1463 1462 1461 1460 1458 1457 1455 1453 1451 1449 1448 1445 1443 1441 1439 1438 1438 1437 1437 1437 1438 1438 1439 1440 1441 1442 1443 1444
1463 1463 1464 1465 1464 1460 1458 1459 1459 1459 1460 1461 1462 1462 1462 1461 1461 1460 1459 1457 1456 1454 1452 1450 1448 1446 1445 1443 1441 1438 1437 1435 1434 1433 1433 1433 1433 1433 1434 1435 1436 1437 1438 1439
1460 1459 1461 1461 1458 1457 1457 1457 1458 1459 1459 1460 1460 1461 1460 1460 1459 1457 1456 1454 1452 1451 1449 1447 1445 1443 1441 1440 1438 1436 1434 1432 1430 1429 1429 1428 1428 1428 1429 1429 1430 1431 1432 1433
1455 1457 1459 1458 1456 1456 1455 1456 1456 1457 1458 1458 1459 1459 1458 1457 1456 1454 1453 1451 1449 1447 1445 1444 1442 1439 1437 1436 1434 1432 1430 1428 1427 1425 1425 1424 1423 1423 1423 1424 1424 1425 1426 1427
1451 1452 1455 1454 1451 1452 1452 1453 1455 1456 1456 1456 1456 1456 1455 1454 1453 1451 1450 1448 1446 1444 1442 1440 1438 1436 1433 1431 1430 1428 1426 1424 1423 1421 1420 1419 1419 1418 1418 1418 1419 1419 1420 1421